{"data":{"norad_id":66999,"epoch":"2026-09-20T11:08:34.997280Z","epoch_age_seconds":115160,"freshness":"FRESH","line1":"1 66999U 25292G   26263.46429395  .00002460  00000+0  16644-3 0  9995","line2":"2 66999  97.6287 338.6244 0016093  52.3617 307.9068 15.07360708 42807","mean_motion":15.07360708,"eccentricity":0.0016093,"inclination_deg":97.6287,"raan_deg":338.6244,"arg_perigee_deg":52.3617,"mean_anomaly_deg":307.9068,"bstar":0.00016644,"rev_number":4280,"period_min":95.531215080604,"perigee_km":533.12846276673,"apogee_km":555.40891772135,"semimajor_km":6922.405690244,"source":"CELESTRAK","updated_at":"2026-09-21T09:00:16.366282Z"}}